Starlink 31699

operational
NORAD ID: 59551 Int'l Des: 2024-074 Owner: SPXS Country: US Constellation: starlink
LEOCIRCULAR

Starlink 31699について

説明を読み込み中...

リアルタイム位置

3D地球を読み込み中...

次回通過

高度履歴

Altitude vs Time

uPlot chart will show altitude changes over time

軌道要素

1 59551U 24074T 26033.43248233 -.00001646 00000-0 -50319-4 0 9996
2 59551 42.9982 182.5074 0001200 288.3550 71.7171 15.27562195100628
Epoch: Feb 2, 2026 • Age: 15 hours

現在のステータス

高度 483.2 km
速度 7.63 km/s
衛星直下点 -0.15°S, 153.4°W
打ち上げ日 Apr 18, 2024
運用期間 1.7 years
タイプ internet

技術仕様

分類 Payload
質量 730.00 kg
乾燥質量 700.00 kg
総質量 730.00 kg
長さ 0.30 m
直径 4.10 m
スパン 29.00 m
形状 Box + pan
製造者 SPXS
バスタイプ Starlink V2M
フェーズステータス In Orbit
所有者/国 SPXS/US

大規模コンステレーション

Loading constellations...